Location: Recife
(8.0585°S, 34.8848°W)
Time: 08:53:01
(UTC-03:00)

Vanguard 3 - Pass Details

Date: 19 April 2026
Orbit: 507 x 3204 km, 33.4° (Epoch: 11 May)

Event Time Altitude Azimuth Distance (km) Brightness Sun altitude
Rises 18:32:51 0° 256° (WSW) 6,317 12.9 -19.7°
Reaches altitude 10° 18:38:46 10° 267° (W) 4,812 12.2 -21.1°
Maximum altitude 18:47:51 23° 313° (NW) 2,978 10.6 -23.3°
Drops below altitude 10° 18:54:05 10° 3° (N) 3,160 10.2 -24.9°
Sets 18:57:03 0° 19° (NNE) 3,769 10.5 -25.6°
